San Diego, CA

10:10 AM PST on February 14, 2016 (GMT -0800)
North Island Naval Air Station

Weather History for KNZY - January, 2014

Change the Weather History Date:

Wednesday, January 29, 2014

  Actual Average Record
Temperature  
Mean Temperature 65 °F -  
Max Temperature 73 °F 61 °F 81 °F (2009)
Min Temperature 57 °F 48 °F 41 °F (1999)
Growing Degree Days 15 (Base 50)    
Moisture  
Dew Point 53 °F    
Average Humidity 71    
Maximum Humidity 83    
Minimum Humidity 46    
Precipitation  
Precipitation 0.00 in - - ()
Sea Level Pressure  
Sea Level Pressure 30.03 in    
Wind  
Wind Speed 3 mph (WNW)    
Max Wind Speed 9 mph    
Max Gust Speed -    
Visibility 3 miles    
Events Fog    
Averages and records for this station are not official NWS values.
T = Trace of Precipitation, MM = Missing Value Source: NWS Daily Summary

Daily Weather History Graph

Daily Weather History Graph

Search for Another Location

Airport or City:

Trip Planner

Search our weather history database for the weather conditions in past years. The results will help you decide how hot, cold, wet, or windy it might be!

Date:

Astronomy

Jan. 29, 2014 Rise Set
Actual Time 6:45 AM PST 5:18 PM PST
Civil Twilight 6:19 AM PST 5:44 PM PST
Nautical Twilight 5:49 AM PST 6:14 PM PST
Astronomical Twilight 5:20 AM PST 6:43 PM PST
Moon 5:25 AM PST (1/29) 4:23 PM PST (1/29)
Length of Visible Light 11h 25m
Length of Day
10h 33m
Waning Crescent, 2% of the Moon is Illuminated
Jan 29
Waning Crescent
Jan 30
New
Feb 6
First Quarter
Feb 14
Full
Feb 22
Last Quarter

Hourly Weather History & Observations

Time (PST) Temp. Dew Point Humidity Pressure Visibility Wind Dir Wind Speed Gust Speed Precip Events Conditions
12:52 AM 60.1 °F 53.1 °F 78% 30.10 in 1.5 mi Calm Calm - N/A   Overcast
1:52 AM 60.1 °F 53.1 °F 78% 30.07 in 1.0 mi ESE 3.5 mph - N/A   Overcast
2:02 AM 60.1 °F 53.1 °F 78% 30.06 in 0.5 mi Calm Calm - N/A Fog Fog
2:12 AM 60.1 °F 53.1 °F 78% 30.06 in 0.2 mi Calm Calm - N/A Fog Fog
2:52 AM 60.1 °F 53.1 °F 78% 30.07 in 0.2 mi ESE 3.5 mph - N/A Fog Fog
3:52 AM 59.0 °F 53.1 °F 81% 30.06 in 0.2 mi Calm Calm - N/A Fog Fog
3:59 AM 60.1 °F 53.1 °F 78% 30.06 in 0.8 mi Calm Calm - N/A   Mist
4:52 AM 59.0 °F 53.1 °F 81% 30.05 in 1.0 mi Calm Calm - N/A   Overcast
5:52 AM 59.0 °F 53.1 °F 81% 30.04 in 2.0 mi SE 3.5 mph - N/A   Overcast
6:41 AM 57.0 °F 52.0 °F 83% 30.05 in 2.0 mi Calm Calm - N/A   Mostly Cloudy
6:52 AM 57.0 °F 51.1 °F 81% 30.06 in 2.0 mi Calm Calm - N/A   Mostly Cloudy
7:15 AM 57.9 °F 51.1 °F 78% 30.06 in 2.0 mi NW 6.9 mph - N/A   Overcast
7:52 AM 57.9 °F 52.0 °F 81% 30.06 in 1.0 mi North 3.5 mph - N/A   Mostly Cloudy
8:36 AM 57.9 °F 51.1 °F 78% 30.07 in 0.2 mi NNW 5.8 mph - N/A Fog Fog
8:52 AM 60.1 °F 52.0 °F 75% 30.07 in 0.5 mi North 5.8 mph - N/A Fog Fog
9:03 AM 61.0 °F 53.1 °F 75% 30.07 in 1.0 mi North 4.6 mph - N/A   Mostly Cloudy
9:17 AM 64.0 °F 54.0 °F 70% 30.07 in 2.5 mi Calm Calm - N/A   Haze
9:39 AM 66.0 °F 53.1 °F 63% 30.07 in 4.0 mi Variable 3.5 mph - N/A   Haze
9:52 AM 66.9 °F 52.0 °F 59% 30.07 in 5.0 mi Calm Calm - N/A   Haze
10:52 AM 71.1 °F 51.1 °F 49% 30.05 in 6.0 mi NNW 4.6 mph - N/A   Haze
11:52 AM 69.1 °F 48.9 °F 49% 30.03 in 7.0 mi NNW 8.1 mph - N/A   Mostly Cloudy
12:52 PM 71.1 °F 51.1 °F 49% 29.99 in 7.0 mi NW 9.2 mph - N/A   Mostly Cloudy
1:52 PM 73.0 °F 51.1 °F 46% 29.97 in 7.0 mi NW 4.6 mph - N/A   Mostly Cloudy
2:52 PM 70.0 °F 53.1 °F 55% 29.96 in 7.0 mi WNW 8.1 mph - N/A   Mostly Cloudy
3:52 PM 68.0 °F 53.1 °F 59% 29.96 in 6.0 mi WNW 5.8 mph - N/A   Haze
4:52 PM 66.0 °F 53.1 °F 63% 29.96 in 5.0 mi Calm Calm - N/A   Haze
5:52 PM 62.1 °F 53.1 °F 72% 29.96 in 4.0 mi SSW 4.6 mph - N/A   Haze
6:43 PM 62.1 °F 54.0 °F 75% 29.96 in 4.0 mi South 3.5 mph - N/A   Haze
6:52 PM 62.1 °F 55.0 °F 78% 29.97 in 4.0 mi SSW 4.6 mph - N/A   Mostly Cloudy
7:52 PM 61.0 °F 53.1 °F 75% 29.98 in 4.0 mi South 6.9 mph - N/A   Overcast
8:52 PM 61.0 °F 53.1 °F 75% 29.99 in 4.0 mi South 3.5 mph - N/A   Overcast
9:52 PM 61.0 °F 52.0 °F 72% 29.99 in 5.0 mi ESE 3.5 mph - N/A   Haze
10:52 PM 61.0 °F 53.1 °F 75% 29.98 in 5.0 mi SSE 6.9 mph - N/A   Overcast
11:52 PM 60.1 °F 52.0 °F 75% 29.98 in 5.0 mi SSE 6.9 mph - N/A   Haze